timestamp,wind_dir_avg,wind_spd_avg,wind_spd_max_dir,wind_spd_gust,battery_voltage,lat,long
2021-12-24 00:04:01+00:00,255.0,16.42,253.0,18.61,12.41,47.59359,-54.27349
2021-12-24 00:14:01+00:00,252.0,16.43,253.0,18.9,12.41,47.59359,-54.27349
2021-12-24 00:24:01+00:00,260.0,16.28,257.0,18.5,12.41,47.59359,-54.27349
2021-12-24 00:34:01+00:00,255.0,15.45,261.0,18.34,12.41,47.59359,-54.27349
2021-12-24 00:44:01+00:00,253.0,14.01,256.0,18.5,12.41,47.59359,-54.27349
2021-12-24 00:54:01+00:00,248.0,13.43,254.0,17.84,12.41,47.59359,-54.27349
2021-12-24 01:04:01+00:00,247.0,11.31,254.0,15.06,12.41,47.59359,-54.27349
2021-12-24 01:14:01+00:00,252.0,10.01,250.0,12.65,12.41,47.59359,-54.27349
2021-12-24 01:24:01+00:00,257.0,16.02,261.0,17.92,12.41,47.59359,-54.27349
2021-12-24 01:34:01+00:00,259.0,11.84,260.0,16.57,12.41,47.59359,-54.27349
2021-12-24 01:44:01+00:00,265.0,14.31,262.0,17.32,12.41,47.59359,-54.27349
2021-12-24 01:54:01+00:00,252.0,10.34,243.0,12.34,12.41,47.59359,-54.27349
2021-12-24 02:04:01+00:00,259.0,12.43,263.0,15.24,12.41,47.59359,-54.27349
2021-12-24 02:14:01+00:00,254.0,14.09,252.0,17.48,12.33,47.59359,-54.27349
2021-12-24 02:24:01+00:00,256.0,13.96,255.0,17.27,12.33,47.59359,-54.27349
2021-12-24 02:34:01+00:00,253.0,12.52,253.0,14.61,12.33,47.59359,-54.27349
2021-12-24 02:44:01+00:00,255.0,13.55,263.0,15.55,12.33,47.59359,-54.27349
2021-12-24 02:54:01+00:00,250.0,13.91,255.0,17.58,12.33,47.59359,-54.27349
2021-12-24 03:04:01+00:00,255.0,15.45,259.0,17.96,12.33,47.59359,-54.27349
2021-12-24 03:14:01+00:00,258.0,15.0,264.0,17.72,12.33,47.59359,-54.27349
2021-12-24 03:24:01+00:00,260.0,17.16,268.0,20.21,12.33,47.59359,-54.27349
2021-12-24 03:34:01+00:00,251.0,18.61,244.0,21.02,12.33,47.59359,-54.27349
2021-12-24 03:44:01+00:00,264.0,14.88,265.0,18.96,12.33,47.59359,-54.27349
2021-12-24 03:54:01+00:00,257.0,13.68,259.0,16.26,12.33,47.59359,-54.27349
2021-12-24 04:04:01+00:00,248.0,16.31,252.0,21.73,12.33,47.59359,-54.27349
2021-12-24 04:14:00+00:00,246.0,15.17,254.0,18.2,12.25,47.59359,-54.27349
2021-12-24 04:24:00+00:00,253.0,17.47,255.0,21.77,12.25,47.59359,-54.27349
2021-12-24 04:34:00+00:00,254.0,15.33,254.0,21.69,12.25,47.59359,-54.27349
2021-12-24 04:44:00+00:00,259.0,14.6,269.0,17.16,12.25,47.59359,-54.27349
2021-12-24 04:54:00+00:00,255.0,17.65,258.0,21.63,12.25,47.59359,-54.27349
2021-12-24 05:04:00+00:00,254.0,16.3,257.0,21.39,12.25,47.59359,-54.27349
2021-12-24 05:14:01+00:00,244.0,13.96,239.0,17.5,12.25,47.59359,-54.27349
2021-12-24 05:24:01+00:00,254.0,14.99,256.0,21.39,12.25,47.59359,-54.27349
2021-12-24 05:34:01+00:00,253.0,13.78,261.0,16.12,12.25,47.59359,-54.27349
2021-12-24 05:44:01+00:00,258.0,16.67,255.0,21.36,12.25,47.59359,-54.27349
2021-12-24 05:54:01+00:00,273.0,12.33,279.0,15.37,12.25,47.59359,-54.27349
2021-12-24 06:04:01+00:00,288.0,0.9,267.0,12.0,12.25,47.59359,-54.27349
2021-12-24 06:14:01+00:00,250.0,12.03,246.0,13.6,12.17,47.59359,-54.27349
2021-12-24 06:24:01+00:00,253.0,13.4,252.0,20.16,12.17,47.59359,-54.27349
2021-12-24 06:34:01+00:00,254.0,12.79,249.0,16.89,12.17,47.59359,-54.27349
2021-12-24 06:44:01+00:00,255.0,15.02,257.0,21.39,12.17,47.59359,-54.27349
2021-12-24 06:54:01+00:00,252.0,12.1,251.0,14.85,12.17,47.59359,-54.27349
2021-12-24 07:04:01+00:00,258.0,14.31,257.0,21.24,12.17,47.59359,-54.27349
2021-12-24 07:14:01+00:00,251.0,17.7,248.0,22.52,12.33,47.59359,-54.27349
2021-12-24 07:24:01+00:00,258.0,14.77,260.0,17.72,12.33,47.59359,-54.27349
2021-12-24 07:34:01+00:00,243.0,13.19,250.0,16.82,12.33,47.59359,-54.27349
2021-12-24 07:44:01+00:00,262.0,14.05,264.0,20.5,12.33,47.59359,-54.27349
2021-12-24 07:54:01+00:00,261.0,13.3,262.0,20.51,12.33,47.59359,-54.27349
2021-12-24 08:04:01+00:00,305.0,9.63,301.0,14.13,12.33,47.59359,-54.27349
2021-12-24 08:14:01+00:00,296.0,9.9,290.0,13.88,12.17,47.59359,-54.27349
2021-12-24 08:24:01+00:00,276.0,9.06,276.0,13.85,12.17,47.59359,-54.27349
2021-12-24 08:34:01+00:00,280.0,10.77,277.0,13.5,12.17,47.59359,-54.27349
2021-12-24 08:44:01+00:00,286.0,5.84,281.0,11.86,12.17,47.59359,-54.27349
2021-12-24 08:54:01+00:00,299.0,8.55,291.0,10.83,12.17,47.59359,-54.27349
2021-12-24 09:04:01+00:00,266.0,12.1,263.0,14.67,12.17,47.59359,-54.27349
2021-12-24 09:14:01+00:00,270.0,12.94,269.0,16.56,12.25,47.59359,-54.27349
2021-12-24 09:24:01+00:00,267.0,11.95,264.0,13.78,12.25,47.59359,-54.27349
2021-12-24 09:34:01+00:00,260.0,12.27,258.0,14.04,12.25,47.59359,-54.27349
2021-12-24 09:44:01+00:00,257.0,12.1,265.0,14.14,12.25,47.59359,-54.27349
2021-12-24 09:54:01+00:00,267.0,11.76,264.0,13.82,12.25,47.59359,-54.27349
2021-12-24 10:04:01+00:00,259.0,18.45,264.0,21.66,12.25,47.59359,-54.27349
2021-12-24 10:14:00+00:00,268.0,12.06,269.0,13.74,12.17,47.59359,-54.27349
2021-12-24 10:24:00+00:00,263.0,14.7,261.0,20.55,12.17,47.59359,-54.27349
2021-12-24 10:34:00+00:00,273.0,12.7,283.0,17.89,12.17,47.59359,-54.27349
2021-12-24 10:44:00+00:00,258.0,13.24,263.0,20.95,12.17,47.59359,-54.27349
2021-12-24 10:54:00+00:00,260.0,12.32,252.0,14.91,12.17,47.59359,-54.27349
2021-12-24 11:04:00+00:00,257.0,13.18,263.0,19.51,12.17,47.59359,-54.27349
2021-12-24 11:14:01+00:00,263.0,13.33,264.0,17.99,12.17,47.59359,-54.27349
2021-12-24 11:24:01+00:00,265.0,16.37,266.0,21.83,12.17,47.59359,-54.27349
2021-12-24 11:34:01+00:00,262.0,13.78,267.0,21.73,12.17,47.59359,-54.27349
2021-12-24 11:44:01+00:00,256.0,15.8,259.0,21.7,12.17,47.59359,-54.27349
2021-12-24 11:54:01+00:00,262.0,19.78,271.0,26.82,12.17,47.59359,-54.27349
2021-12-24 12:04:01+00:00,258.0,16.89,250.0,22.11,12.17,47.59359,-54.27349
2021-12-24 12:14:00+00:00,263.0,17.54,265.0,21.82,12.41,47.59359,-54.27349
2021-12-24 12:24:00+00:00,260.0,15.32,264.0,21.85,12.41,47.59359,-54.27349
2021-12-24 12:34:00+00:00,262.0,16.65,261.0,21.85,12.41,47.59359,-54.27349
2021-12-24 12:44:00+00:00,245.0,14.3,249.0,20.32,12.41,47.59359,-54.27349
2021-12-24 12:54:00+00:00,255.0,18.1,256.0,22.17,12.41,47.59359,-54.27349
2021-12-24 13:04:00+00:00,251.0,16.38,245.0,22.05,12.41,47.59359,-54.27349
2021-12-24 13:14:01+00:00,256.0,14.05,267.0,20.93,13.21,47.59359,-54.27349
2021-12-24 13:24:01+00:00,245.0,12.74,239.0,14.07,13.21,47.59359,-54.27349
2021-12-24 13:34:01+00:00,246.0,13.0,235.0,17.58,13.21,47.59359,-54.27349
2021-12-24 13:44:01+00:00,247.0,12.24,241.0,14.02,13.21,47.59359,-54.27349
2021-12-24 13:54:01+00:00,252.0,15.67,250.0,22.51,13.21,47.59359,-54.27349
2021-12-24 14:04:01+00:00,245.0,13.49,252.0,18.97,13.21,47.59359,-54.27349
2021-12-24 14:14:01+00:00,246.0,15.44,249.0,22.38,13.37,47.59359,-54.27349
2021-12-24 14:24:01+00:00,256.0,14.03,254.0,17.55,13.37,47.59359,-54.27349
2021-12-24 14:34:01+00:00,255.0,17.49,265.0,21.8,13.37,47.59359,-54.27349
2021-12-24 14:44:01+00:00,247.0,14.61,250.0,17.47,13.37,47.59359,-54.27349
2021-12-24 14:54:01+00:00,253.0,13.8,256.0,15.89,13.37,47.59359,-54.27349
2021-12-24 15:04:01+00:00,248.0,14.14,257.0,16.4,13.37,47.59359,-54.27349
2021-12-24 15:14:01+00:00,251.0,17.36,256.0,21.66,13.44,47.59359,-54.27349
2021-12-24 15:24:01+00:00,253.0,14.28,247.0,20.28,13.44,47.59359,-54.27349
2021-12-24 15:34:01+00:00,251.0,19.91,241.0,23.68,13.44,47.59359,-54.27349
2021-12-24 15:44:01+00:00,253.0,17.22,250.0,22.57,13.44,47.59359,-54.27349
2021-12-24 15:54:01+00:00,261.0,18.66,260.0,21.95,13.44,47.59359,-54.27349
2021-12-24 16:04:01+00:00,260.0,16.33,267.0,21.26,13.44,47.59359,-54.27349
2021-12-24 16:14:01+00:00,256.0,15.84,262.0,20.94,13.37,47.59359,-54.27349
2021-12-24 16:24:01+00:00,247.0,17.26,252.0,22.08,13.37,47.59359,-54.27349
2021-12-24 16:34:01+00:00,250.0,17.04,250.0,21.89,13.37,47.59359,-54.27349
2021-12-24 16:44:01+00:00,251.0,20.1,243.0,23.66,13.37,47.59359,-54.27349
2021-12-24 16:54:01+00:00,249.0,16.38,251.0,22.09,13.37,47.59359,-54.27349
2021-12-24 17:04:01+00:00,252.0,17.78,257.0,22.19,13.37,47.59359,-54.27349
2021-12-24 17:14:01+00:00,253.0,17.12,253.0,22.33,13.29,47.59359,-54.27349
2021-12-24 17:24:01+00:00,252.0,17.07,250.0,22.16,13.29,47.59359,-54.27349
2021-12-24 17:34:01+00:00,251.0,14.41,251.0,21.94,13.29,47.59359,-54.27349
2021-12-24 17:44:01+00:00,249.0,17.57,240.0,23.27,13.29,47.59359,-54.27349
2021-12-24 17:54:01+00:00,246.0,13.57,247.0,18.04,13.29,47.59359,-54.27349
2021-12-24 18:04:01+00:00,254.0,15.68,255.0,21.79,13.29,47.59359,-54.27349
2021-12-24 18:14:01+00:00,250.0,16.18,251.0,22.39,14.4,47.59359,-54.27349
2021-12-24 18:24:01+00:00,253.0,16.36,258.0,21.02,14.4,47.59359,-54.27349
2021-12-24 18:34:01+00:00,261.0,19.43,260.0,22.28,14.4,47.59359,-54.27349
2021-12-24 18:44:01+00:00,248.0,17.73,245.0,23.09,14.4,47.59359,-54.27349
2021-12-24 18:54:01+00:00,253.0,14.42,260.0,20.28,14.4,47.59359,-54.27349
2021-12-24 19:04:01+00:00,250.0,13.28,264.0,17.97,14.4,47.59359,-54.27349
2021-12-24 19:14:00+00:00,258.0,12.7,259.0,17.75,12.97,47.59359,-54.27349
2021-12-24 19:24:00+00:00,258.0,16.04,259.0,21.67,12.97,47.59359,-54.27349
2021-12-24 19:34:00+00:00,256.0,17.82,257.0,22.05,12.97,47.59359,-54.27349
2021-12-24 19:44:00+00:00,259.0,17.9,251.0,22.28,12.97,47.59359,-54.27349
2021-12-24 19:54:00+00:00,269.0,18.08,272.0,22.27,12.97,47.59359,-54.27349
2021-12-24 20:04:00+00:00,279.0,17.69,281.0,22.27,12.97,47.59359,-54.27349
2021-12-24 20:14:01+00:00,269.0,13.01,280.0,20.8,12.65,47.59359,-54.27349
2021-12-24 20:24:01+00:00,267.0,13.65,268.0,20.69,12.65,47.59359,-54.27349
2021-12-24 20:34:01+00:00,256.0,12.04,256.0,16.89,12.65,47.59359,-54.27349
2021-12-24 20:44:01+00:00,256.0,12.09,259.0,14.54,12.65,47.59359,-54.27349
2021-12-24 20:54:01+00:00,248.0,13.17,249.0,19.25,12.65,47.59359,-54.27349
2021-12-24 21:04:01+00:00,258.0,15.68,256.0,21.71,12.65,47.59359,-54.27349
2021-12-24 21:14:01+00:00,257.0,20.11,257.0,21.92,12.65,47.59359,-54.27349
2021-12-24 21:24:01+00:00,254.0,17.78,259.0,21.81,12.65,47.59359,-54.27349
2021-12-24 21:34:01+00:00,257.0,13.72,264.0,17.55,12.65,47.59359,-54.27349
2021-12-24 21:44:01+00:00,253.0,16.92,248.0,22.26,12.65,47.59359,-54.27349
2021-12-24 21:54:01+00:00,256.0,16.01,254.0,22.28,12.65,47.59359,-54.27349
2021-12-24 22:04:01+00:00,253.0,13.22,255.0,21.44,12.65,47.59359,-54.27349
2021-12-24 22:14:01+00:00,243.0,12.37,255.0,15.33,12.57,47.59359,-54.27349
2021-12-24 22:24:01+00:00,253.0,12.78,255.0,15.37,12.57,47.59359,-54.27349
2021-12-24 22:34:01+00:00,245.0,12.7,249.0,15.49,12.57,47.59359,-54.27349
2021-12-24 22:44:01+00:00,239.0,12.61,242.0,16.11,12.57,47.59359,-54.27349
2021-12-24 22:54:01+00:00,246.0,14.54,250.0,21.78,12.57,47.59359,-54.27349
2021-12-24 23:04:01+00:00,242.0,12.42,250.0,14.6,12.57,47.59359,-54.27349
2021-12-24 23:14:01+00:00,247.0,13.68,259.0,19.91,12.57,47.59359,-54.27349
2021-12-24 23:24:01+00:00,261.0,13.19,255.0,14.89,12.57,47.59359,-54.27349
2021-12-24 23:34:01+00:00,244.0,12.28,246.0,17.08,12.57,47.59359,-54.27349
2021-12-24 23:44:01+00:00,250.0,12.75,259.0,20.83,12.57,47.59359,-54.27349
2021-12-24 23:54:01+00:00,244.0,12.6,245.0,16.88,12.57,47.59359,-54.27349
